Tracking 27188 objects as of 1-Apr-2023
HD Live streaming from Space Station
objects crossing your sky now

STARLINK-5601

Track STARLINK-5601 now!
10-day predictions
STARLINK-5601 is classified as:


NORAD ID: 55744
Int'l Code: 2023-028D
Perigee: 403.8 km
Apogee: 408.4 km
Inclination: 70.0 °
Period: 92.5 minutes
Semi major axis: 6777 km
RCS: Unknown
Launch date: March 3, 2023
Source: United States (US)
Launch site: AIR FORCE WESTERN TEST RANGE (AFWTR)
Your satellite tracking list
Your tracking list is empty




NASA's NSSDC Master Catalog

Two Line Element Set (TLE):
1 55744U 23028D   23090.91667824 -.00923018  00000-0 -14514-1 0  9998
2 55744  70.0009  76.2523 0003413 264.3269 273.6605 15.56086345  5086
Source of the keplerian elements: AFSPC